Location: Eaton Estates
(41.3089°N, 82.0057°W)
Time: 16:37:31
(UTC+00:00)

Cosmos 1891 Rocket - Pass Details

Date: 17 June 2021
Orbit: 935 x 1017 km, 82.9° (Epoch: 02 August)

Event Time Altitude Azimuth Distance (km) Brightness Sun altitude
Rises 04:44:33 0° 352° (N) 3,631 8.9 -24.5°
Reaches altitude 10° 04:47:01 10° 353° (N) 2,692 7.9 -24.6°
Maximum altitude 04:53:12 88° 85° (E) 975 4.4 -24.8°
Enters shadow 04:54:36 57° 170° (S) 1,132 4.4 -24.8°
